FW5469 Weather Reports


time (UTC)temp
C
wind
direction
speed
KPH
gust
KPH
rain 1hr
cm
rain 24hr
cm
rain mn
cm
humidity
%
barometer
mb
20260508074555 8 0 1.6 8.0 0.00 0.00 0.00 77 1011.1
20260508073103 8 143 1.6 6.4 0.00 0.00 0.00 76 1011.1
20260508071559 8 227 1.6 4.8 0.00 0.00 0.00 74 1011.2
20260508070057 9 0 3.2 9.7 0.00 0.00 0.00 72 1011.2
20260508064602 9 244 1.6 9.7 0.00 0.00 0.00 70 1011.2
20260508063105 8 0 1.6 9.7 0.00 0.00 0.00 69 1011.1
20260508061604 8 158 1.6 8.0 0.00 0.00 0.00 69 1011.1
20260508054559 8 249 0.0 4.8 0.00 0.00 0.00 70 1011.3
20260508053103 8 233 1.6 6.4 0.00 0.00 0.00 69 1011.3
20260508051557 8 0 0.0 4.8 0.00 0.00 0.00 70 1011.6
20260508050106 8 0 0.0 3.2 0.00 0.00 0.00 70 1011.7
20260508044557 8 0 1.6 6.4 0.00 0.00 0.00 69 1011.8
20260508043104 8 229 0.0 4.8 0.00 0.00 0.00 70 1011.8
20260508041558 8 0 0.0 1.6 0.00 0.00 0.00 70 1011.8
20260508040103 8 235 1.6 6.4 0.00 0.00 0.00 69 1011.8
20260508034559 8 234 0.0 3.2 0.00 0.00 0.00 70 1011.8
20260508033059 7 238 0.0 3.2 0.00 0.00 0.00 72 1011.9
20260508031557 6 0 0.0 1.6 0.00 0.00 0.00 79 1011.8
20260508030055 5 0 0.0 0.0 0.00 0.00 0.00 81 1011.9
20260508024558 5 0 0.0 0.0 0.00 0.00 0.00 80 1011.8
20260508023054 5 0 0.0 0.0 0.00 0.00 0.00 80 1011.7
20260508021558 5 0 0.0 0.0 0.00 0.00 0.00 78 1011.7
20260508020103 6 0 0.0 1.6 0.00 0.00 0.00 75 1011.8
20260508014557 6 0 0.0 0.0 0.00 0.00 0.00 73 1011.6
20260508013056 6 0 0.0 0.0 0.00 0.00 0.00 71 1011.6
20260508011555 7 0 0.0 0.0 0.00 0.00 0.00 70 1011.4
20260508010100 8 0 0.0 0.0 0.00 0.00 0.00 65 1011.4
20260508004600 9 0 0.0 0.0 0.00 0.00 0.00 61 1011.3
20260508003058 10 0 0.0 0.0 0.00 0.00 0.00 56 1011.3
20260508001559 11 355 0.0 8.0 0.00 0.00 0.00 51 1011.2
20260508000100 12 299 3.2 17.7 0.00 0.00 0.00 48 1011.0
20260507234607 12 297 4.8 14.5 0.00 0.00 0.00 46 1010.9
20260507233100 12 305 4.8 16.1 0.00 0.00 0.00 48 1011.0
20260507231601 12 278 4.8 14.5 0.00 0.00 0.00 46 1010.9
20260507230105 13 272 4.8 19.3 0.00 0.00 0.00 47 1011.1
20260507224600 13 340 6.4 17.7 0.00 0.00 0.00 45 1011.2
20260507223056 13 293 4.8 17.7 0.00 0.00 0.00 45 1011.1
20260507221600 13 307 8.0 17.7 0.00 0.00 0.00 46 1011.2
20260507220059 13 327 6.4 17.7 0.00 0.00 0.00 44 1011.2
20260507214607 13 238 6.4 19.3 0.00 0.00 0.00 45 1011.0
20260507213057 13 248 8.0 27.4 0.00 0.00 0.00 46 1011.0
20260507211605 13 348 8.0 19.3 0.00 0.00 0.00 52 1010.9
20260507210106 13 293 4.8 17.7 0.00 0.00 0.00 55 1010.7
20260507204557 12 294 1.6 16.1 0.00 0.00 0.00 60 1010.7
20260507203110 12 17 6.4 19.3 0.00 0.00 0.00 57 1010.7
20260507201600 12 24 4.8 17.7 0.00 0.00 0.00 56 1010.6
20260507200109 12 347 3.2 20.9 0.00 0.00 0.00 56 1010.4
20260507194557 14 167 3.2 20.9 0.00 0.00 0.00 52 1010.3
20260507193059 14 153 3.2 22.5 0.00 0.00 0.00 53 1010.6
20260507191600 13 179 1.6 12.9 0.00 0.00 0.00 54 1010.6
20260507190104 13 300 4.8 12.9 0.00 0.00 0.00 59 1010.8
20260507184600 13 323 3.2 14.5 0.00 0.00 0.00 55 1010.8
20260507183058 13 0 4.8 11.3 0.00 0.00 0.00 58 1010.9
20260507181601 12 221 4.8 14.5 0.00 0.00 0.00 59 1010.9
20260507180055 12 282 4.8 11.3 0.00 0.00 0.00 55 1010.9
20260507174558 12 348 4.8 14.5 0.00 0.00 0.00 53 1010.9
20260507173103 13 264 3.2 16.1 0.00 0.00 0.00 54 1010.9
20260507171600 13 328 8.0 14.5 0.00 0.00 0.00 54 1011.0
20260507170104 12 338 4.8 16.1 0.00 0.00 0.00 56 1011.1
20260507164605 13 311 4.8 14.5 0.00 0.00 0.00 56 1011.1
20260507163056 12 335 3.2 14.5 0.00 0.00 0.00 61 1011.1
20260507161604 12 321 3.2 12.9 0.00 0.00 0.00 54 1011.2
20260507160058 12 331 1.6 8.0 0.00 0.00 0.00 57 1011.2
20260507154600 12 290 3.2 20.9 0.00 0.00 0.00 51 1011.2
20260507153111 12 309 3.2 14.5 0.00 0.00 0.00 54 1011.3
20260507151558 12 299 0.0 11.3 0.00 0.00 0.00 56 1011.2
20260507150058 12 1 4.8 12.9 0.00 0.00 0.00 58 1011.3
20260507144557 11 324 6.4 11.3 0.00 0.00 0.00 59 1011.2
20260507143100 11 72 3.2 9.7 0.00 0.00 0.00 58 1011.3
20260507141555 11 340 3.2 9.7 0.00 0.00 0.00 61 1011.4
20260507140100 10 326 1.6 4.8 0.00 0.00 0.00 67 1011.6
20260507134603 10 311 1.6 6.4 0.00 0.00 0.00 69 1011.8
20260507133129 10 308 1.6 6.4 0.00 0.00 0.00 69 1011.9
20260507131555 10 0 0.0 6.4 0.00 0.00 0.00 71 1012.0
20260507130106 9 142 0.0 4.8 0.00 0.00 0.00 73 1012.0
20260507124556 8 311 0.0 6.4 0.00 0.00 0.00 73 1012.0
20260507123055 8 146 1.6 6.4 0.00 0.00 0.00 75 1012.0
20260507121621 7 0 0.0 6.4 0.00 0.00 0.00 77 1011.8
20260507120103 7 0 1.6 8.0 0.00 0.00 0.00 78 1011.8
20260507114638 7 200 0.0 6.4 0.00 0.00 0.00 79 1011.6
20260507113056 6 233 1.6 6.4 0.00 0.00 0.00 80 1011.6
20260507111601 5 0 0.0 0.0 0.00 0.00 0.00 85 1011.6
20260507110059 5 0 0.0 0.0 0.00 0.00 0.00 85 1011.4
20260507104554 5 0 0.0 0.0 0.00 0.00 0.00 86 1011.2
20260507103055 5 0 0.0 0.0 0.00 0.00 0.00 85 1011.1
20260507101603 5 0 0.0 0.0 0.00 0.00 0.00 86 1011.1
20260507100057 5 0 0.0 0.0 0.00 0.00 0.00 86 1011.1
20260507094604 5 0 0.0 0.0 0.00 0.05 0.00 84 1011.2
20260507093054 5 0 0.0 0.0 0.00 0.05 0.00 82 1011.2
20260507091555 5 0 0.0 3.2 0.00 0.05 0.00 81 1011.1
20260507090100 5 0 0.0 3.2 0.00 0.05 0.00 84 1011.2
20260507084601 4 0 0.0 0.0 0.00 0.18 0.00 88 1011.2
20260507083056 4 0 0.0 0.0 0.00 0.18 0.00 89 1011.3
20260507081556 4 0 0.0 0.0 0.00 0.18 0.00 89 1011.4
20260507080120 3 0 0.0 0.0 0.00 0.18 0.00 89 1011.5